Location: Colossi of Memnon
(25.7167°N, 32.6167°E)
Time: 21:18:26
(UTC+00:00)

Envisat - Pass Details

Date: 22 September 2021
Orbit: 764 x 766 km, 98.2° (Epoch: 15 October)

Event Time Altitude Azimuth Distance (km) Brightness Sun altitude
Rises 02:33:30 0° 17° (NNE) 3,228 6.6 -15.3°
Reaches altitude 10° 02:35:51 10° 21° (NNE) 2,299 5.9 -14.8°
Maximum altitude 02:40:50 58° 101° (E) 885 3.7 -13.7°
Drops below altitude 10° 02:45:48 10° 180° (S) 2,289 5.4 -12.6°
Sets 02:48:08 0° 184° (S) 3,212 6.1 -12.1°
